TimeEDT,TemperatureF,Dew PointF,Humidity,Sea Level PressureIn,VisibilityMPH,Wind Direction,Wind SpeedMPH,Gust SpeedMPH,PrecipitationIn,Events,Conditions,WindDirDegrees,DateUTC
12:15 AM,62.6,60.8,94,29.74,10.0,ENE,4.6,-,N/A,,Overcast,70,2013-05-24 04:15:00
12:35 AM,62.6,60.8,94,29.73,10.0,Calm,Calm,-,N/A,,Overcast,0,2013-05-24 04:35:00
12:55 AM,62.6,60.8,94,29.73,10.0,Calm,Calm,-,N/A,,Overcast,0,2013-05-24 04:55:00
1:15 AM,62.6,60.8,94,29.72,10.0,Calm,Calm,-,N/A,,Overcast,0,2013-05-24 05:15:00
1:35 AM,62.6,60.8,94,29.72,9.0,Calm,Calm,-,N/A,,Overcast,0,2013-05-24 05:35:00
1:55 AM,62.6,60.8,94,29.71,7.0,Calm,Calm,-,0.04,,Overcast,0,2013-05-24 05:55:00
2:15 AM,62.6,60.8,94,29.70,4.0,Calm,Calm,-,0.06,,Overcast,0,2013-05-24 06:15:00
2:35 AM,62.6,60.8,94,29.70,7.0,Calm,Calm,-,0.12,,Overcast,0,2013-05-24 06:35:00
2:55 AM,62.6,60.8,94,29.69,4.0,Calm,Calm,-,0.19,,Overcast,0,2013-05-24 06:55:00
3:15 AM,62.6,60.8,94,29.69,5.0,Calm,Calm,-,0.05,,Overcast,0,2013-05-24 07:15:00
3:35 AM,62.6,60.8,94,29.69,7.0,Calm,Calm,-,0.07,,Overcast,0,2013-05-24 07:35:00
3:55 AM,62.6,60.8,94,29.68,4.0,Calm,Calm,-,0.09,,Overcast,0,2013-05-24 07:55:00
4:15 AM,62.6,60.8,94,29.68,3.0,Calm,Calm,-,0.03,,Overcast,0,2013-05-24 08:15:00
4:35 AM,62.6,60.8,94,29.68,9.0,Calm,Calm,-,0.06,,Overcast,0,2013-05-24 08:35:00
4:55 AM,62.6,60.8,94,29.67,1.0,Calm,Calm,-,0.08,,Overcast,0,2013-05-24 08:55:00
5:15 AM,60.8,59.0,94,29.65,0.8,Calm,Calm,-,0.03,,Overcast,0,2013-05-24 09:15:00
5:35 AM,60.8,59.0,94,29.67,2.5,NNW,12.7,18.4,0.04,,Overcast,340,2013-05-24 09:35:00
5:55 AM,55.4,53.6,94,29.69,10.0,North,10.4,20.7,0.04,,Overcast,350,2013-05-24 09:55:00
6:15 AM,53.6,51.8,94,29.69,10.0,North,12.7,20.7,0.01,,Overcast,360,2013-05-24 10:15:00
6:35 AM,53.6,51.8,94,29.71,10.0,North,10.4,-,0.01,,Overcast,360,2013-05-24 10:35:00
6:55 AM,51.8,48.2,88,29.72,10.0,North,10.4,17.3,0.01,,Overcast,350,2013-05-24 10:55:00
7:15 AM,51.8,50.0,94,29.73,10.0,NNW,8.1,-,N/A,,Overcast,340,2013-05-24 11:15:00
7:35 AM,50.0,48.2,94,29.74,9.0,NNW,8.1,-,N/A,,Overcast,340,2013-05-24 11:35:00
7:55 AM,50.0,48.2,94,29.76,7.0,NNW,9.2,17.3,N/A,,Overcast,340,2013-05-24 11:55:00
8:15 AM,48.2,46.4,93,29.77,3.0,NNW,11.5,17.3,0.02,,Overcast,340,2013-05-24 12:15:00
8:35 AM,48.2,46.4,93,29.78,3.0,North,13.8,18.4,0.02,,Overcast,350,2013-05-24 12:35:00
8:55 AM,48.2,46.4,93,29.80,2.5,NW,13.8,20.7,0.02,,Overcast,320,2013-05-24 12:55:00
9:15 AM,46.4,44.6,93,29.81,3.0,NW,12.7,20.7,N/A,,Overcast,320,2013-05-24 13:15:00
9:35 AM,46.4,44.6,93,29.82,4.0,NNW,11.5,19.6,N/A,,Overcast,340,2013-05-24 13:35:00
9:55 AM,46.4,44.6,93,29.81,10.0,NW,12.7,-,N/A,,Overcast,320,2013-05-24 13:55:00
10:15 AM,46.4,44.6,93,29.83,10.0,NNW,11.5,16.1,N/A,,Overcast,340,2013-05-24 14:15:00
10:35 AM,46.4,44.6,93,29.84,10.0,NW,8.1,-,N/A,,Overcast,320,2013-05-24 14:35:00
10:55 AM,46.4,44.6,93,29.84,10.0,NW,15.0,18.4,N/A,,Overcast,320,2013-05-24 14:55:00
11:15 AM,46.4,44.6,93,29.85,10.0,NW,9.2,18.4,N/A,,Overcast,320,2013-05-24 15:15:00
11:35 AM,46.4,42.8,87,29.87,10.0,NW,15.0,21.9,N/A,,Overcast,320,2013-05-24 15:35:00
11:55 AM,46.4,42.8,87,29.86,10.0,NNW,12.7,21.9,N/A,,Overcast,330,2013-05-24 15:55:00
12:15 PM,44.6,42.8,93,29.87,10.0,NNW,10.4,19.6,N/A,,Overcast,330,2013-05-24 16:15:00
12:35 PM,44.6,42.8,93,29.88,10.0,NNW,11.5,21.9,N/A,,Overcast,330,2013-05-24 16:35:00
12:55 PM,44.6,42.8,93,29.88,10.0,NW,12.7,19.6,N/A,,Overcast,320,2013-05-24 16:55:00
1:15 PM,44.6,41.0,87,29.88,10.0,NNW,13.8,23.0,N/A,,Overcast,330,2013-05-24 17:15:00
1:35 PM,46.4,42.8,87,29.89,10.0,NNW,12.7,21.9,N/A,,Overcast,330,2013-05-24 17:35:00
1:55 PM,46.4,42.8,87,29.89,10.0,NNW,11.5,20.7,N/A,,Overcast,330,2013-05-24 17:55:00
2:15 PM,46.4,41.0,81,29.89,10.0,NW,13.8,19.6,N/A,,Overcast,320,2013-05-24 18:15:00
2:35 PM,46.4,42.8,87,29.89,10.0,NW,13.8,20.7,N/A,,Overcast,320,2013-05-24 18:35:00
2:55 PM,44.6,42.8,93,29.90,10.0,NNW,13.8,25.3,N/A,,Overcast,330,2013-05-24 18:55:00
3:15 PM,44.6,41.0,87,29.91,10.0,NNW,12.7,18.4,N/A,,Overcast,330,2013-05-24 19:15:00
3:35 PM,44.6,41.0,87,29.91,10.0,NW,10.4,25.3,N/A,,Overcast,320,2013-05-24 19:35:00
3:55 PM,44.6,41.0,87,29.91,10.0,NNW,10.4,21.9,N/A,,Overcast,340,2013-05-24 19:55:00
4:15 PM,44.6,41.0,87,29.92,10.0,NW,15.0,-,N/A,,Overcast,320,2013-05-24 20:15:00
4:35 PM,44.6,41.0,87,29.93,10.0,NNW,11.5,20.7,N/A,,Overcast,330,2013-05-24 20:35:00
4:55 PM,42.8,39.2,87,29.93,10.0,NW,11.5,20.7,N/A,,Overcast,320,2013-05-24 20:55:00
5:15 PM,42.8,41.0,93,29.93,9.0,NNW,10.4,21.9,0.01,,Overcast,330,2013-05-24 21:15:00
5:35 PM,42.8,41.0,93,29.93,3.0,NNW,13.8,18.4,0.01,,Overcast,330,2013-05-24 21:35:00
5:55 PM,42.8,41.0,93,29.93,5.0,NNW,10.4,18.4,0.02,,Overcast,330,2013-05-24 21:55:00
6:15 PM,42.8,41.0,93,29.92,4.0,NNW,12.7,18.4,N/A,,Overcast,330,2013-05-24 22:15:00
6:35 PM,42.8,41.0,93,29.94,6.0,NNW,10.4,19.6,N/A,,Overcast,330,2013-05-24 22:35:00
6:55 PM,42.8,39.2,87,29.94,10.0,NNW,11.5,19.6,N/A,,Overcast,330,2013-05-24 22:55:00
7:15 PM,42.8,39.2,87,29.94,10.0,NW,10.4,18.4,0.02,,Overcast,320,2013-05-24 23:15:00
7:35 PM,42.8,39.2,87,29.95,9.0,NNW,10.4,23.0,0.02,,Overcast,330,2013-05-24 23:35:00
7:55 PM,42.8,39.2,87,29.94,8.0,NNW,9.2,23.0,0.04,,Overcast,330,2013-05-24 23:55:00
8:15 PM,42.8,41.0,93,29.95,8.0,NNW,10.4,20.7,0.02,,Overcast,330,2013-05-25 00:15:00
8:35 PM,42.8,41.0,93,29.96,10.0,NW,9.2,19.6,0.04,,Overcast,320,2013-05-25 00:35:00
8:55 PM,42.8,39.2,87,29.96,10.0,NNW,9.2,21.9,0.06,,Overcast,330,2013-05-25 00:55:00
9:15 PM,42.8,39.2,87,29.96,10.0,North,11.5,16.1,0.05,,Overcast,350,2013-05-25 01:15:00
9:35 PM,42.8,39.2,87,29.96,10.0,NNW,10.4,-,0.11,,Overcast,330,2013-05-25 01:35:00
9:55 PM,42.8,39.2,87,29.96,10.0,NNW,11.5,17.3,0.11,,Overcast,340,2013-05-25 01:55:00
10:15 PM,42.8,39.2,87,29.97,10.0,NNW,11.5,18.4,0.01,,Overcast,330,2013-05-25 02:15:00
10:35 PM,42.8,39.2,87,29.97,10.0,NW,10.4,17.3,0.01,,Overcast,320,2013-05-25 02:35:00
10:55 PM,42.8,41.0,93,29.97,10.0,NNW,10.4,17.3,0.01,,Overcast,330,2013-05-25 02:55:00
11:15 PM,42.8,41.0,93,29.96,10.0,NNW,10.4,-,N/A,,Overcast,340,2013-05-25 03:15:00
11:35 PM,42.8,41.0,93,29.95,10.0,North,9.2,16.1,N/A,,Overcast,350,2013-05-25 03:35:00
11:55 PM,42.8,39.2,87,29.95,10.0,NNW,10.4,-,N/A,,Overcast,330,2013-05-25 03:55:00